Location: Boss Branch
(32.3799°N, 97.2508°W)
Time: 22:29:57
(UTC+00:00)

JUGNU - Pass Details

Date: 13 December 2024
Orbit: 834 x 861 km, 20.0° (Epoch: 19 January)

Event Time Altitude Azimuth Distance (km) Brightness Sun altitude
Exits shadow 10:45:42 23° 172° (S) 1,690 ? -32.1°
Drops below altitude 10° 10:49:37 10° 130° (SE) 2,426 ? -31.3°
Sets 10:52:37 0° 116° (ESE) 3,359 ? -30.7°
